Content
SEND FEEDBACK

Daily
Averages
Monthly
Summary
United States of America

GLEN CANYON CITY, UTAH


Home > North America > United States > Utah
Elevation: 4133 feet     Latitude: 37 05N     Longitude: 111 40W

WEATHER
 
SELECT A DAY
Number of Records: 197,796;   Date Range: 1/1/95 - 11/27/14
 
SHARE

PRINT THIS DATA

[ ← Previous Day ]
WEATHER ALMANAC - DECEMBER 22, 2013
[ Next Day → ]
[ °C ]   °F
Weather ElementAverageHighLow
Temperature38.5 °F45 °F (1:53 pm)33.1 °F (6:53 am)
Dewpoint18.2 °F19.9 °F (11:53 am)17.1 °F (1:53 am)
Humidity44.6 %56 % (9:53 pm)33 % (3:53 pm)
Barometer30.19 in30.35 in (10:53 pm)29.99 in (1:53 am)
Wind Speed3.8 mph10.4 mph (1:53 am)
Wind Gust17.3 mph (2:53 am)
Weather ElementAverage
Visibility9.3 mi
Wind DirectionSE (137.4 °)

Weather ElementTotal
Precipitation---
Heating Degree Days26 (Base 65)
Averaged from 23 records on December 22, 2013
WEATHER CONDITIONS BREAKOUT
WIND DIRECTION BREAKOUT
WEATHER BY HOUR - DECEMBER 22, 2013
[ °C ]   °F
Local TimeTemperatureDewpointHumidityBarometerVisibilityWind DirectionWind SpeedGust SpeedPrecipitationEventsConditions
1:53 AM39.0 °F17.1 °F41 %29.99 in10.0 miWNW (290°)10.4 mphClear
2:53 AM39.0 °F17.1 °F41 %30.01 in10.0 miWNW (290°)10.4 mph17.3 mphClear
3:53 AM37.9 °F17.1 °F43 %30.03 in10.0 miWNW (300°)10.4 mph16.1 mphClear
4:53 AM37.9 °F17.1 °F43 %30.05 in10.0 miWNW (290°)8.1 mphClear
5:53 AM36.0 °F17.1 °F46 %30.08 in10.0 miCalmClear
6:53 AM33.1 °F17.1 °F52 %30.12 in5.0 miCalmHaze
7:53 AM33.1 °F18.0 °F54 %30.15 in10.0 miWNW (290°)3.5 mphClear
8:53 AM37.9 °F18.0 °F45 %30.16 in10.0 miCalmClear
9:53 AM39.0 °F18.0 °F43 %30.19 in10.0 miNNW (330°)5.8 mphClear
10:53 AM41.0 °F19.0 °F41 %30.20 in10.0 miNNW (340°)5.8 mphClear
11:53 AM43.0 °F19.9 °F40 %30.20 in10.0 miNNW (340°)4.6 mphClear
12:53 PM44.1 °F19.0 °F37 %30.17 in10.0 miNNE (20°)4.6 mphClear
1:53 PM45.0 °F18.0 °F34 %30.17 in10.0 miVariable3.5 mphClear
2:53 PM45.0 °F18.0 °F34 %30.18 in10.0 miNNE (30°)3.5 mphClear
3:53 PM45.0 °F17.1 °F33 %30.19 in10.0 miNNE (20°)3.5 mphClear
4:53 PM42.1 °F18.0 °F38 %30.21 in10.0 miCalmClear
5:53 PM39.0 °F19.0 °F45 %30.25 in10.0 miCalmClear
6:53 PM37.0 °F19.0 °F48 %30.28 in7.0 miCalmClear
7:53 PM37.0 °F19.0 °F48 %30.31 in7.0 miCalmClear
8:53 PM34.0 °F19.0 °F54 %30.31 in6.0 miCalmHaze
9:53 PM33.1 °F19.0 °F56 %30.33 in10.0 miSE (130°)5.8 mphClear
10:53 PM33.1 °F19.0 °F56 %30.35 in9.0 miSW (230°)3.5 mphClear
11:53 PM33.1 °F18.0 °F54 %30.35 in10.0 miWest (260°)3.5 mphClear
Hourly data recorded from KPGA, located miles away from Glen Canyon City, Utah







STORIES FROM OUR PARTNERS